Lapse_Rate
6.4 6.3 6.4 6.5 5.8 6.0 5.6 5.5 5.6 5.5 5.3 5.3 5.7 5.8 6.0 5.4 5.4 5.6 5.8 5.8 5.9 6.2 6.3 6.2 6.1 5.9 5.8 5.5 5.4 5.5 5.4 5.4 5.5 5.5 5.6 5.6 5.7 5.8 6.0 5.9 5.8 6.0 6.1
6.4 6.5 6.7 6.8 6.1 5.9 5.8 5.6 5.4 5.6 5.5 5.3 5.7 5.7 6.0 5.7 5.3 5.5 6.0 6.3 6.2 6.2 6.1 6.1 5.9 5.8 5.6 5.4 5.3 5.3 5.4 5.3 5.5 5.5 5.6 5.5 5.5 5.7 5.8 5.9 5.9 5.9 6.0
6.7 6.9 6.8 6.8 6.2 5.9 5.7 5.8 5.7 5.5 5.2 5.5 5.5 5.8 5.6 6.0 5.6 5.5 5.8 6.1 6.4 6.4 6.3 6.2 6.0 5.8 5.6 5.4 5.2 5.1 5.1 5.2 5.2 5.2 5.4 5.6 5.5 5.5 5.7 5.7 5.7 5.8 5.9
7.2 7.2 7.2 6.8 6.8 6.1 5.8 5.9 5.8 5.7 5.6 5.4 5.6 5.8 5.7 6.0 5.8 5.7 5.2 5.7 6.1 6.2 6.3 6.2 6.0 5.9 5.7 5.4 5.2 4.9 4.8 4.9 5.1 5.0 5.2 5.3 5.3 5.4 5.3 5.5 5.5 5.5 5.5
7.4 7.3 7.1 6.9 6.9 6.6 6.1 6.2 6.1 6.1 5.8 5.6 5.5 5.6 5.6 6.0 6.0 6.0 5.6 5.3 5.6 6.2 6.2 6.1 5.9 6.0 5.9 5.6 5.5 5.0 4.6 4.5 4.7 4.9 5.0 5.1 5.2 5.1 5.2 5.5 5.6 5.5 5.5
7.7 7.5 7.3 7.0 6.8 6.7 6.4 6.3 6.0 6.1 5.9 5.9 5.8 5.7 5.5 5.9 5.9 6.0 5.7 5.4 5.4 6.0 6.0 6.0 5.7 5.4 6.0 5.6 5.5 5.6 5.2 4.8 4.8 4.9 4.8 4.9 5.1 5.1 5.1 5.0 5.0 5.2 5.3
8.1 7.8 7.6 7.4 7.2 7.1 6.9 6.6 6.1 6.1 5.9 6.0 5.7 6.0 5.7 5.8 5.7 5.7 5.8 5.5 5.7 6.0 6.0 6.3 5.8 4.7 4.9 5.2 5.3 5.4 5.5 5.4 5.1 5.1 5.2 5.0 4.8 4.8 4.8 4.8 4.6 4.5 4.7
8.1 7.9 7.7 7.5 7.3 7.0 6.8 6.6 5.9 6.1 6.1 6.1 5.7 5.7 5.8 6.0 6.1 6.1 6.0 5.6 5.8 6.0 6.1 6.1 5.6 4.6 4.4 4.8 5.0 5.2 5.2 5.2 5.3 5.3 5.1 5.0 5.0 4.8 4.7 4.5 4.3 4.5 4.6
8.4 8.3 7.9 7.5 7.4 7.2 6.9 6.6 6.1 5.6 5.9 6.1 6.1 6.1 5.9 5.8 5.7 5.9 5.8 5.6 5.9 6.2 6.5 5.9 5.0 4.5 4.3 4.3 4.9 5.1 5.0 4.9 4.9 4.8 4.9 4.9 4.8 4.7 4.7 4.6 4.5 4.6 4.6
8.4 8.6 8.0 7.6 7.2 7.0 6.8 6.5 6.3 5.3 5.6 5.5 5.9 5.8 6.0 5.8 5.7 5.6 5.9 5.8 5.9 6.1 6.4 5.5 5.0 4.1 4.5 4.4 5.1 5.1 4.8 4.7 4.6 4.5 4.5 4.5 4.5 4.7 4.6 4.7 4.7 4.7 4.6
8.3 8.2 8.0 7.7 7.4 7.1 6.8 6.6 6.2 5.4 5.5 5.7 5.5 5.7 5.9 6.0 5.7 5.8 5.8 5.8 5.8 5.7 5.8 5.3 4.6 4.1 4.1 4.4 4.8 4.8 4.5 4.5 4.4 4.4 4.4 4.5 4.5 4.5 4.5 4.5 4.6 4.6 4.6
8.0 8.0 8.0 7.7 7.5 7.3 7.1 6.7 6.4 5.5 5.9 5.6 5.4 5.5 5.6 5.7 5.8 5.9 5.9 5.9 5.7 5.2 4.9 4.7 4.5 4.1 4.2 4.4 4.5 4.6 4.3 4.3 4.3 4.3 4.4 4.4 4.5 4.5 4.6 4.7 4.7 4.7 4.6
7.9 7.8 8.0 7.8 7.6 7.5 7.3 6.8 6.3 5.3 5.7 5.7 5.4 5.7 5.9 5.9 5.9 5.6 6.0 5.5 4.9 4.7 4.9 4.5 4.2 4.0 4.1 4.3 4.3 4.4 4.2 4.1 4.2 4.2 4.3 4.3 4.3 4.4 4.4 4.4 4.4 4.4 4.5
7.8 7.8 7.7 7.9 7.8 7.6 7.5 6.8 6.2 5.6 5.8 5.9 5.8 5.8 5.8 5.8 5.9 6.0 5.5 5.0 4.3 4.2 4.2 4.3 4.1 4.1 4.4 4.3 4.2 4.0 3.9 3.9 4.1 4.1 4.2 4.2 4.2 4.3 4.4 4.3 4.3 4.3 4.3
7.7 7.7 7.8 7.5 7.5 7.4 7.1 6.9 6.3 5.5 5.9 6.0 5.9 5.7 5.5 5.4 5.5 5.3 5.0 4.8 4.6 4.4 4.2 4.2 4.3 4.3 4.2 4.1 3.9 3.9 3.9 3.9 4.0 4.1 4.1 4.1 4.1 4.1 4.1 4.0 4.0 4.1 4.2
6.7 7.2 7.6 7.6 6.9 6.7 6.7 6.4 5.9 5.3 5.7 5.8 5.8 5.6 5.4 5.3 5.2 4.9 4.5 4.6 4.4 4.2 4.1 4.2 3.9 3.9 3.9 3.9 3.9 3.9 3.8 3.7 3.8 4.0 4.0 3.9 3.7 3.6 3.5 3.7 4.0 4.1 4.3
6.7 6.4 6.7 6.6 6.6 6.5 6.2 5.9 5.5 5.1 5.3 5.4 5.4 5.3 5.2 5.0 4.9 4.4 4.4 4.5 4.3 4.1 3.7 3.5 3.6 3.6 3.7 3.6 3.5 3.3 3.5 3.5 3.6 3.7 3.6 3.3 3.4 3.7 3.9 4.1 4.1 4.2 4.2
6.6 6.1 6.2 6.5 6.5 6.2 5.5 5.7 5.2 4.7 4.6 4.8 4.9 4.8 4.7 4.6 4.6 4.4 4.1 4.0 3.7 3.3 3.1 3.2 3.2 3.2 3.2 3.3 3.5 3.4 3.4 3.5 3.2 3.4 3.8 3.8 3.9 3.9 3.9 3.9 3.9 3.8 3.6
6.0 6.1 5.9 5.9 5.9 5.6 5.3 5.4 4.8 4.6 4.4 4.4 4.4 4.3 4.2 4.1 3.9 3.8 3.6 3.3 3.1 3.1 3.4 3.3 3.2 3.3 3.3 3.3 3.4 3.2 3.3 3.6 3.7 3.8 3.8 3.7 3.6 3.6 3.9 3.6 3.5 3.5 3.4
5.7 5.9 5.8 5.5 5.4 5.1 5.0 4.6 4.5 4.4 4.2 4.1 4.0 3.9 3.8 3.7 3.5 3.1 3.1 3.5 3.3 3.1 3.1 3.1 3.1 3.1 3.3 3.3 3.5 3.7 3.7 3.7 3.6 3.5 3.4 3.4 3.4 3.2 3.2 3.1 2.8 2.6 2.6
6.2 5.8 5.2 4.8 4.6 4.5 4.4 4.2 3.9 3.7 3.6 3.6 3.6 3.5 3.4 3.4 3.5 3.2 3.1 3.1 3.0 3.0 3.1 3.1 3.2 3.2 3.4 3.5 3.7 3.7 3.6 3.6 3.5 3.2 3.2 3.1 3.0 2.8 2.6 2.4 2.1 1.8 1.5
5.7 5.9 4.9 4.4 4.0 3.9 3.6 3.5 3.4 3.3 3.1 3.1 3.2 3.2 3.3 3.0 2.9 2.8 2.7 2.8 2.9 3.0 3.1 3.0 3.2 3.4 3.4 3.4 3.4 3.5 3.7 3.5 3.3 3.2 3.1 2.8 2.5 2.1 1.6 1.3 1.1 0.8 0.7
5.8 4.7 4.6 3.8 3.4 3.3 3.3 3.1 3.0 2.8 2.8 3.0 3.0 2.8 2.6 2.5 2.5 2.6 2.7 2.7 2.9 2.9 2.9 3.2 3.4 3.5 3.5 3.5 3.5 3.5 3.2 3.0 2.8 2.6 2.3 1.9 1.6 1.3 1.1 0.9 0.8 0.4 0.3
5.6 4.3 3.7 3.0 2.9 2.8 2.6 2.8 2.7 2.6 2.3 2.1 2.4 2.4 2.3 2.4 2.5 2.5 2.7 2.7 2.7 3.0 3.3 3.4 3.5 3.5 3.5 3.5 3.2 3.0 2.7 2.5 2.3 2.0 1.7 1.4 1.2 1.1 0.9 0.6 0.4 0.3 0.3
4.4 3.5 2.8 2.8 2.6 2.3 2.1 2.1 1.9 2.0 1.8 1.9 2.1 2.2 2.2 2.3 2.6 2.9 2.6 2.9 3.2 3.3 3.4 3.3 3.3 3.3 3.3 3.2 3.1 3.0 2.6 2.3 1.9 1.6 1.4 1.2 0.9 0.7 0.6 0.6 0.6 0.5 0.6
3.6 3.0 2.4 2.3 2.1 1.7 1.6 1.7 1.8 1.7 1.7 1.9 2.1 2.1 2.4 2.7 2.7 2.9 3.0 3.2 3.3 3.2 3.2 3.2 3.3 3.4 3.4 3.2 3.0 2.6 2.4 2.1 1.9 1.5 1.4 1.3 1.3 1.3 1.3 1.2 1.3 1.3 1.4
Wind_Speed
8 10 10 9 6 6 6 7 6 7 4 3 3 1 3 2 6 12 12 13 14 14 14 12 10 9 5 4 4 3 6 4 3 4 8 8 10 12 15 17 17 20 22
12 12 11 10 10 7 6 6 7 7 4 4 2 3 3 2 6 10 11 13 13 14 13 12 10 10 5 6 5 3 2 2 4 2 3 3 3 7 9 13 15 17 18
16 15 13 12 9 9 8 6 6 9 6 7 6 5 6 2 2 4 5 12 13 14 15 14 10 10 10 5 4 4 4 3 4 6 1 3 2 3 5 9 10 13 15
14 14 15 14 11 8 6 5 6 3 7 10 7 5 1 2 2 4 6 9 13 14 16 14 14 13 10 7 7 9 4 2 3 2 5 4 3 3 3 5 6 11 10
16 17 17 15 11 10 7 6 6 5 4 6 8 5 4 4 4 5 8 8 12 16 16 15 14 14 13 13 12 9 8 6 3 3 2 4 4 3 3 3 3 6 8
18 15 15 15 13 11 9 8 7 7 6 4 7 9 8 7 6 6 6 5 5 12 15 15 16 15 15 14 13 14 14 8 8 6 7 4 3 2 2 3 3 5 5
16 17 18 15 14 13 12 9 10 8 6 8 6 9 8 6 7 7 6 7 5 6 9 15 15 14 16 16 17 16 15 12 8 8 7 6 6 3 2 2 2 2 2
15 17 18 16 16 15 13 11 10 10 8 7 9 9 9 5 4 6 6 6 6 6 12 16 16 16 16 17 18 16 15 16 12 12 9 7 6 6 6 2 1 2 2
15 16 15 14 14 13 13 12 12 11 10 10 8 8 7 10 7 7 10 7 12 13 15 15 16 16 17 17 18 14 13 15 14 12 12 8 9 12 10 6 4 2 2
13 13 14 15 12 13 12 12 12 12 12 11 9 9 8 9 10 9 7 9 14 14 15 15 15 15 16 16 16 14 14 13 12 13 10 9 10 11 11 8 5 5 2
11 13 12 13 13 13 13 13 13 13 12 11 10 10 10 8 12 7 8 11 16 14 14 14 15 13 15 15 16 15 14 10 9 13 9 9 12 6 8 10 6 6 4
10 10 12 14 14 13 13 13 12 12 11 11 12 11 10 9 9 9 9 12 14 15 15 16 16 14 15 14 14 11 12 10 10 8 9 8 11 7 7 5 6 4 5
10 10 10 11 12 13 12 12 12 12 11 12 12 11 9 10 9 9 11 13 15 14 16 16 14 13 13 14 15 15 12 11 10 10 8 6 5 5 3 4 4 4 4
11 9 8 8 10 11 12 12 12 12 11 12 12 12 10 9 9 10 11 14 14 14 15 14 13 13 14 14 14 14 11 11 11 11 10 8 6 4 3 5 4 4 2
12 11 8 8 10 11 11 11 11 12 12 12 12 11 10 8 10 9 12 14 14 14 14 13 13 11 12 12 13 13 11 8 7 11 11 10 11 11 10 5 2 2 1
13 13 13 10 11 13 11 11 11 11 12 12 12 11 11 10 9 9 9 12 11 12 13 10 10 8 8 19 17 15 10 9 5 5 9 8 9 10 9 9 9 9 2
13 14 14 13 11 11 13 12 11 11 12 13 12 11 11 11 10 9 9 9 8 10 7 7 9 5 8 16 16 15 11 8 6 5 5 5 7 9 9 7 7 8 12
14 12 13 13 10 11 11 13 12 12 12 12 11 11 11 11 10 10 10 9 7 8 7 7 8 7 9 12 15 14 10 9 8 8 5 3 7 10 8 4 6 8 11
12 11 12 13 14 12 13 12 12 12 12 11 11 11 11 12 11 11 10 8 8 8 7 8 7 6 7 12 14 11 8 6 5 7 8 3 7 10 22 12 7 5 5
12 15 14 14 14 12 13 14 12 11 11 11 11 11 11 11 11 10 9 7 7 8 8 9 8 11 6 9 13 12 7 4 4 6 7 9 12 15 17 9 5 5 2
15 16 16 15 15 13 13 13 13 11 10 12 12 11 10 11 11 10 7 8 8 8 7 7 6 8 9 9 13 12 7 3 3 3 3 10 14 16 17 15 9 4 10
15 14 15 15 14 14 14 13 12 11 12 13 13 12 12 9 8 10 8 9 8 8 6 6 5 5 9 10 10 9 10 8 5 3 4 9 14 15 14 12 14 14 14
13 12 14 16 13 13 14 15 13 12 12 12 13 12 11 9 9 9 9 7 6 6 5 4 4 3 4 5 6 5 9 11 10 8 9 12 12 12 12 14 14 13 9
12 12 15 15 14 12 12 15 13 13 12 12 11 10 10 9 8 6 6 6 5 4 4 3 3 2 1 2 4 2 5 7 9 8 8 9 10 11 10 8 9 8 8
12 12 13 13 13 13 12 13 13 13 12 11 10 10 8 8 8 6 5 5 4 7 3 2 2 2 2 2 3 8 4 10 6 5 4 3 2 3 4 4 6 7 8
12 12 12 14 13 13 12 11 11 12 12 11 8 8 7 6 6 5 3 13 12 11 11 12 7 2 1 3 8 11 10 8 7 5 2 2 2 3 4 5 6 4 7
Wind_Direction
195 179 184 170 159 167 172 143 152 123 125 123 103 114 62 64 51 41 39 45 46 54 71 71 62 48 54 67 51 76 93 65 42 98 81 68 55 52 51 57 56 56 53
184 184 182 179 188 173 169 163 148 129 145 107 148 108 108 49 78 65 44 52 49 54 56 54 55 57 63 48 45 35 100 72 16 111 117 120 96 56 49 58 61 54 53
192 183 183 186 181 176 171 169 169 154 149 114 110 91 96 152 78 59 39 38 54 52 54 50 52 56 61 60 53 19 52 119 36 42 98 141 136 122 50 59 60 59 54
196 185 178 184 180 164 148 154 140 147 129 154 120 153 217 184 106 104 91 59 57 58 59 57 54 51 55 53 52 42 42 52 77 23 36 57 75 144 144 67 63 61 56
189 184 181 174 167 153 151 140 135 124 110 156 134 126 122 106 124 109 95 77 61 59 58 58 60 60 61 52 61 54 52 53 69 30 0 34 50 26 136 144 123 77 54
187 176 167 160 158 156 154 151 151 144 144 135 136 123 133 149 141 121 105 88 68 64 58 63 64 61 61 61 57 65 64 70 71 65 50 44 40 32 52 106 96 117 72
175 164 163 164 155 155 155 151 148 137 147 130 102 119 136 146 136 119 119 111 88 70 51 67 63 62 68 67 70 66 63 59 67 61 62 55 48 20 30 60 94 120 139
172 172 166 159 157 156 155 152 147 135 121 126 120 124 118 107 78 108 107 98 95 86 73 72 72 70 70 71 73 69 69 67 63 61 55 58 42 38 39 56 60 106 114
163 160 154 153 153 150 152 149 142 131 122 117 109 95 106 106 101 90 97 103 99 93 81 78 79 73 75 76 77 74 73 68 65 62 60 59 42 44 45 48 39 41 125
143 142 148 150 146 144 139 135 131 129 124 119 115 106 96 91 98 99 92 98 91 92 88 82 79 78 78 77 80 77 69 76 70 67 64 58 49 47 44 46 44 40 74
137 142 143 140 136 135 135 130 127 125 122 117 114 118 100 98 88 88 88 86 93 92 88 86 84 79 77 77 82 76 72 73 71 66 66 66 56 52 48 48 47 50 34
131 132 134 134 137 135 133 131 125 120 120 117 111 105 103 100 100 95 95 97 94 90 92 91 86 80 77 75 77 79 71 74 71 67 65 57 60 54 46 52 54 60 55
124 129 134 137 137 137 133 127 124 120 119 119 115 107 104 100 105 99 98 94 92 91 91 90 90 89 88 85 81 84 81 77 76 71 67 56 47 49 46 58 58 51 45
141 133 128 132 135 135 134 130 125 124 124 119 115 112 110 108 100 101 99 95 95 95 93 92 94 94 97 94 92 89 84 79 72 69 63 38 41 51 27 57 45 48 27
156 147 133 129 132 132 131 126 121 121 121 116 114 113 109 105 108 107 100 97 96 96 103 100 90 88 107 104 97 94 90 88 76 62 56 41 49 41 36 48 24 359 359
166 150 144 140 141 141 133 126 124 122 121 119 118 118 116 116 117 111 106 102 101 97 91 80 76 55 56 109 100 98 89 81 72 64 49 47 41 28 21 27 24 18 2
169 162 156 145 141 141 135 131 126 124 125 126 128 127 127 122 120 115 115 114 105 100 89 79 71 51 66 101 93 89 89 86 75 67 52 37 15 2 327 327 354 351 353
162 156 148 133 131 128 120 123 126 127 128 127 128 129 127 122 123 119 114 108 105 100 95 83 70 57 69 96 93 90 90 76 63 53 38 2 333 335 4 28 14 355 1
147 146 138 130 125 123 126 121 121 125 127 130 130 130 130 127 125 118 116 116 111 101 94 89 81 67 31 97 94 94 85 72 55 44 11 57 330 344 62 53 18 1 15
135 132 131 124 122 127 128 124 124 129 132 133 131 129 126 121 118 118 114 109 108 107 106 96 77 89 50 88 106 104 98 84 61 43 24 15 38 38 11 67 21 343 33
136 132 134 130 129 129 131 128 129 131 134 126 123 121 117 115 114 112 113 111 107 104 101 98 82 68 66 30 104 105 116 115 87 58 30 0 28 9 360 6 339 332 54
139 137 134 128 132 133 133 129 126 129 133 131 122 117 116 124 120 116 112 110 112 107 100 100 88 69 48 63 66 67 111 97 96 81 64 8 6 6 13 9 9 8 8
130 135 132 129 133 139 139 131 130 130 127 122 119 124 121 122 122 120 120 113 106 105 99 100 99 92 70 57 52 49 56 70 94 63 25 10 21 22 16 14 9 6 350
126 133 131 131 134 137 134 125 130 127 128 124 121 126 124 121 119 118 119 116 114 109 110 106 96 84 64 34 5 32 63 83 92 49 42 35 30 20 11 360 346 336 327
130 133 132 132 125 124 126 126 129 126 126 122 126 135 123 120 117 113 123 123 130 134 133 135 121 99 28 310 98 159 159 144 123 87 45 26 5 352 347 338 326 323 318
131 125 121 119 119 119 118 120 122 128 130 130 127 127 124 119 117 120 102 135 156 139 131 135 136 194 272 59 78 90 58 40 40 53 48 340 346 346 338 331 323 316 315